Regional Weather Roundup
Issued by NWS

Home | Current Version | Previous Version | Text Only | Print | Product List | Glossary On
Versions: 1 2 3 4 5 6 7 8 9 10 11 12 13 14 15 16 17 18 19 20 21 22 23 24 25 26 27 28 29 30 31 32 33 34 35 36 37 38 39 40 41 42 43 44 45 46 47 48 49 50
000
ASUS43 KDMX 011207
RWRIA

WEATHER ROUNDUP FOR IOWA
NATIONAL WEATHER SERVICE DES MOINES IA
700 AM CDT WED OCT 01 2014

NOTE: "FAIR" INDICATES FEW OR NO CLOUDS BELOW 12,000 FEET WITH NO
SIGNIFICANT WEATHER AND/OR OBSTRUCTIONS TO VISIBILITY.

* - THESE STATIONS ARE NOT NWS STATIONS...THUS NOT UNDER NWS
QUALITY CONTROL.  THEY ALSO DO NOT REPORT WEATHER SUCH
AS PRECIPITATION OR FOG.

IAZ001>003-012>014-020>022-031>034-043>046-011300-
   NORTHWEST IOWA

CITY           SKY/WX    TMP DP  RH WIND       PRES   REMARKS
CARROLL *      CLOUDY    61  61 100 SE10G16   29.74R
CHEROKEE *     CLOUDY    61  61 100 CALM      29.75R FOG
DENISON *      LGT RAIN  61  61 100 VRB3      29.69F
LE MARS *        N/A     57  57 100 CALM      29.74S FOG
ORANGE CITY *  CLEAR     59  55  88 E5        29.75R FOG
SHELDON *      PTCLDY    55  55 100 SE6       29.74S FOG
SIOUX CITY     CLOUDY    58  57  97 CALM      29.73S FOG
6HR MIN TEMP:  58; 6HR MAX TEMP:  63;

SPENCER        CLOUDY    59  57  93 SE6       29.76S FOG
6HR MIN TEMP:  58; 6HR MAX TEMP:  60; 6HR PCP: TRACE;

STORM LAKE *   CLOUDY    59  57  94 SE9       29.75S FOG
$$

IAZ055>058-069>071-079>083-090>094-011300-
   SOUTHWEST IOWA

CITY           SKY/WX    TMP DP  RH WIND       PRES   REMARKS
ATLANTIC *     LGT RAIN  63  63 100 SW6G13    29.75R
AUDUBON *      LGT RAIN  64  57  77 S9        29.76R
CLARINDA *     CLOUDY    64  64 100 VRB6      29.75S
COUNCIL BLFS * LGT RAIN  61  61 100 SE7       29.73R
CRESTON *      CLOUDY    63  63 100 SE10G16   29.77S FOG
HARLAN  *      LGT RAIN  63  63 100 S5        29.76S
LAMONI         TSTM      63  62  97 E10       29.78F FOG
6HR MIN TEMP:  63; 6HR MAX TEMP:  66; 6HR PCP:  0.56;

RED OAK *      CLOUDY    63  61  94 CALM      29.74R
SHENANDOAH *   CLOUDY    63  61  94 SE5       29.73S
$$

IAZ047>049-059>061-072>074-084-011300-
   CENTRAL IOWA

CITY           SKY/WX    TMP DP  RH WIND       PRES   REMARKS
AMES           RAIN      54  54 100 SE13G18   29.80F FOG
6HR MIN TEMP:  54; 6HR MAX TEMP:  58; 6HR PCP:  0.71;

ANKENY *       LGT RAIN  57  55  94 SE9G16    29.80F
CHARITON *     LGT RAIN  59  59 100 SE8       29.83F
DES MOINES     HVY RAIN  59  57  93 SE12      29.80S FOG
6HR MIN TEMP:  59; 6HR MAX TEMP:  65; 6HR PCP:  1.13;

GRINNELL*      RAIN      53  50  90 E9        29.86R
KNOXVILLE *    LGT RAIN  57  55  94 SE9       29.83S
MARSHALLTOWN   LGT RAIN  53  51  93 SE10      29.85S
6HR MIN TEMP:  53; 6HR MAX TEMP:  56; 6HR PCP:  0.04;

PELLA *        CLOUDY    56  53  89 SE9       29.86R
PERRY *        LGT RAIN  59  59 100 SE12G20   29.75S
$$

IAZ004>006-015-016-023>025-035-036-011300-
   NORTH CENTRAL IOWA

CITY           SKY/WX    TMP DP  RH WIND       PRES   REMARKS
ALGONA *       CLOUDY    54  54 100 SE16G23   29.78S FOG
CLARION *      LGT RAIN  54  54 100 SE15G22   29.78F
ESTHERVILLE    CLOUDY    55  54  96 SE8       29.77S FOG
6HR MIN TEMP:  54; 6HR MAX TEMP:  58; 6HR PCP:  0.02;

FORT DODGE *   CLOUDY    55  54  94 E9G21     29.75F
MASON CITY     LGT RAIN  51  50  96 SE16G22   29.84F
6HR MIN TEMP:  50; 6HR MAX TEMP:  54; 6HR PCP:  0.52;

FOREST CITY *  LGT RAIN  52  52 100 SE9G18    29.82F
IOWA FALLS *   RAIN      52  50  93 SE12G18   29.84F
$$

IAZ007>011-017>019-026>030-037>042-050>054-066-011300-
   NORTHEAST IOWA

CITY           SKY/WX    TMP DP  RH WIND       PRES   REMARKS
CHARLES CITY * LGT RAIN  50  48  93 SE10      29.88F
CLINTON *      PTCLDY    48  45  87 E10       29.97S
DECORAH *      CLOUDY    48  46  93 SE8       29.90R
DUBUQUE        MOCLDY    48  46  93 SE7       29.94
MONTICELLO *   CLOUDY    52  48  87 SE10G17   29.91S
OELWEIN *      CLOUDY    52  48  87 SE13      29.90R
WATERLOO       CLOUDY    52  47  83 SE10      29.88S
6HR MIN TEMP:  52; 6HR MAX TEMP:  53;

$$

IAZ064-065-067-068-078-011300-
   EAST CENTRAL IOWA

CITY           SKY/WX    TMP DP  RH WIND       PRES   REMARKS
IOWA CITY      CLOUDY    53  48  83 SE12      29.91S
6HR MIN TEMP:  52; 6HR MAX TEMP:  53;

MT. PLEASANT * PTCLDY    52  48  86 SE6       29.90R
MUSCATINE *    CLOUDY    54  48  82 E7G13     29.91S
$$

IAZ062-063-075>077-085>089-095>099-011300-
   SOUTHEAST IOWA

CITY           SKY/WX    TMP DP  RH WIND       PRES   REMARKS
BURLINGTON     CLEAR     52  49  89 SE7       29.90S
6HR MIN TEMP:  52; 6HR MAX TEMP:  56;

FAIRFIELD *    CLOUDY    54  50  87 SE10      29.88R
FORT MADISON * CLEAR     54  50  87 SE7       29.91R FOG
KEOKUK *       CLEAR     55  52  88 SE9G15    29.88S
OSKALOOSA *    LGT RAIN  55  52  90 SE13G20   29.86S
CENTERVILLE *  CLOUDY    59  59 100 E6        29.87R
OTTUMWA        LGT RAIN  54  51  90 SE10      29.87R
6HR MIN TEMP:  54; 6HR MAX TEMP:  58; 6HR PCP: TRACE;

WASHINGTON *   CLEAR     52  50  93 SE9       29.90R
$$

ABBREVIATIONS USED IN REMARKS
   TC - TEMPERATURES IN CELSIUS
  WCI - WIND CHILL INDEX
   HX - HEAT INDEX
  VSB - VISIBILITY
$$



USA.gov is the U.S. government's official web portal to all federal, state and local government web resources and services.